DELTA 1 DEB, 9701

Orbit data source: Space-Track

DELTA 1 DEB, 9701 is space debris in SSO originally from a launch on Tue, 06 Nov 1973 UTC launched from the Air Force Western Test Range (AFWTR). Debris objects in space refer to the collection of defunct objects orbiting the Earth. Examples of debris include non-operational satellites, rocket bodies, and fragments generated from explosions, collisions, or faulty payload assembly.

Loading next visibility...
Identifier
9701, 1973-086FZ
Orbit
SSO
Country
Flag of USUS
Related business
Manufacturer
Unknown
Mission
Spacecraft
Bus & Motor
Unknown
Mass
Unknown
Launch date (UTC)
1973-11-06 (53 years ago)
Launch vehicle
Unknown
Launch site
Air Force Western Test Range (AFWTR)
Object type
Payload
Rocket body
Debris
Shape & HBR
Unknown shape, 0.1 m
Radar Cross Section
Medium (>0.1 m² and <1 m²)

Expand to show TLE details & history
Last TLE update: 12 hours ago

TLE from 12 hours ago
0 DELTA 1 DEB
1 09701U 73086FZ  26255.23087370  .00003905  00000-0  82520-2 0  9997
2 09701 102.7346 158.6505 0020527 105.4449  45.8614 13.31774586461829
Epoch: 2026-09-12T05:32Z
TLE epoch observation values (Epoch: 2026-09-12T05:32:27.487Z)
Latitude
27.80461°
Longitude
-88.8974°
Altitude
1,132.508 km
Speed
7.294 km/s
True Right ascension
23h 01m 50s
True Declination
27° 40' 12"
Sunlit
Object was in full shadow at epoch
Visualization orbit readout
Latitude
Unknown
Longitude
Unknown
Altitude
Unknown
Speed
Unknown
Apparent Right ascension
Unknown
Apparent Declination
Unknown
Sunlit
N/A
Visualization observer readout
Local Sidereal Time
10:09:56
Azimuth
Unknown
Elevation
Unknown
Doppler factor
Unknown
Orbital elements
Apogee altitude
1,153.008 km
Perigee altitude
1,122.153 km
Semi-major axis
7,515.717 km
Eccentricity
0.00205
Inclination
102.7346°
RAAN
158.6505°
Arg. of periapsis
105.4449°
True anomaly
46.03051°
Mean anomaly
45.8614°
Eccentric anomaly
45.94593°
Mean motion
3.3311 °/min
Orbital period
108.07 mins
BSTAR
0.008252
Loading maneuver chart data...
Computing Atmospheric mass density...
Loading historical data...
Loading historical data...
Loading historical data...
Loading historical data...
Loading historical data...
Loading historical data...
Loading historical data...

Documentation

Showing up to 5 results
|